SCP
0 0 0 0 0 0 0 0 0 0 0 0 0 0 0 0 0 0 0 0 0 0 0 0 0 0 0 0 0 0 0 0 0 0 0 0 0 0 0 0 0 0 0 0 0 0 -0 0 0
0 0 0 0 0 0 0 0 0 0 0 0 0 0 0 0 0 0 0 0 0 0 0 0 0 0 0 0 0 0 0 0 0 0 0 0 0 0 0 0 0 0 0 0 0 0 0 0 0
0 0 0 0 0 0 0 0 0 0 0 0 0 0 0 0 0 0 0 0 0 0 0 0 0 0 0 0 0 0 0 0 0 0 0 0 0 0 0 0 0 0 0 0 0 0 0 0 0
0 0 0 0 0 0 0 0 0 0 0 0 0 0 0 0 0 0 0 0 0 0 0 0 0 0 0 0 0 0 0 0 0 0 0 0 0 0 0 0 0 0 0 0 0 0 0 0 0
0 0 0 0 0 0 0 0 0 0 0 0 0 0 0 0 0 0 0 0 0 0 0 0 0 0 0 0 0 0 0 0 0 0 0 0 0 0 0 0 0 0 0 0 0 0 0 0 0
0 0 0 0 0 0 0 0 0 0 0 0 0 0 0 0 0 0 0 0 0 0 0 0 0 0 0 0 0 0 0 0 0 0 0 0 0 0 0 0 0 0 0 0 0 0 0 0 0
0 0 0 0 0 0 0 0 0 0 0 0 0 0 0 0 0 0 0 0 0 0 0 0 0 0 0 0 0 0 0 0 0 0 0 0 0 0 0 0 0 0 0 0 0 0 0 0 0
0 0 0 0 0 0 0 0 0 0 0 0 0 0 0 0 1 1 1 0 0 0 0 0 0 0 0 0 0 0 0 0 0 0 0 0 0 0 0 0 0 0 0 0 0 0 0 0 0
0 0 0 0 0 0 0 0 0 0 0 0 0 0 0 0 1 1 1 1 0 0 0 0 0 0 0 0 0 0 0 0 0 0 0 0 0 0 0 0 0 1 1 1 1 0 0 0 0
0 0 -0 0 0 0 0 0 0 1 1 0 0 0 0 0 1 1 1 1 1 0 0 0 0 0 0 0 0 0 0 0 0 0 0 0 0 0 0 0 0 1 1 1 1 1 0 0 0
0 0 0 0 0 0 0 0 0 0 0 0 0 0 0 0 1 1 1 1 1 0 0 0 0 0 0 0 0 0 0 0 0 0 0 0 0 0 0 0 0 1 1 1 1 0 0 0 0
0 0 0 0 0 0 0 0 0 1 1 1 1 0 0 0 0 1 1 1 1 1 0 0 0 0 0 0 0 0 0 0 0 0 0 0 0 0 0 0 0 0 1 1 0 0 0 0 0
0 0 0 0 0 0 0 0 1 1 1 1 1 1 0 0 0 1 1 1 1 1 1 0 0 0 0 0 0 0 0 0 0 0 0 0 0 0 0 0 0 0 0 0 0 0 0 0 0
0 0 0 0 0 0 0 0 1 1 2 1 1 1 1 0 1 1 1 2 1 1 1 1 1 1 1 1 1 1 1 1 1 1 1 1 0 0 0 0 0 1 1 1 1 0 0 0 0
0 0 0 0 0 0 0 0 1 2 2 2 1 1 1 1 1 2 2 2 2 2 2 2 1 1 1 1 1 1 1 1 1 1 1 1 1 1 1 1 1 1 1 1 1 1 0 0 0
0 0 0 0 0 0 0 1 2 3 4 3 3 3 3 3 3 3 3 3 3 2 3 2 2 2 2 2 2 2 2 2 1 1 1 1 1 1 1 1 1 1 1 1 1 1 1 0 0
0 0 0 0 0 0 0 1 2 3 5 5 5 6 6 6 6 5 5 5 4 3 4 4 3 2 2 2 2 2 2 2 2 1 1 1 1 1 2 2 2 2 1 1 1 1 1 1 1
0 0 0 0 0 0 0 0 1 3 5 7 7 9 9 9 9 9 9 8 7 5 5 5 5 4 3 3 2 2 2 2 2 2 1 1 2 2 2 2 2 2 2 2 2 1 1 1 1
0 0 0 0 0 0 0 1 1 3 5 7 9 10 11 11 11 11 12 13 11 8 6 6 6 5 4 4 3 3 2 2 2 2 2 2 2 2 2 2 2 2 2 2 2 2 2 1 1
0 0 0 0 0 0 0 1 2 3 5 7 9 11 12 12 12 12 14 14 12 9 6 6 5 5 5 4 4 3 3 2 2 2 2 2 2 2 2 2 2 2 2 2 2 2 2 2 1
0 0 0 0 0 0 0 1 2 3 5 7 8 10 11 12 12 12 12 12 10 8 7 6 6 5 5 5 4 4 3 3 2 2 2 2 1 2 2 2 2 2 2 2 2 2 2 2 1
0 0 0 0 0 0 0 0 1 2 4 6 7 9 10 11 12 11 10 10 10 9 9 7 6 6 5 5 5 4 3 3 2 2 2 2 2 2 2 2 2 2 2 2 2 2 2 1 1
0 0 0 0 0 0 0 0 0 2 3 5 6 7 8 9 10 10 9 9 10 11 10 8 7 6 4 4 4 4 3 3 2 2 2 2 2 2 2 2 2 2 2 2 2 2 2 1 1
0 0 0 0 0 0 0 0 0 1 3 4 5 6 6 7 8 8 7 7 8 9 8 8 7 6 4 3 3 3 3 2 2 2 2 2 1 1 1 1 2 2 2 1 1 1 1 1 1
0 0 0 0 0 0 0 0 1 1 2 3 4 5 5 5 5 5 5 5 5 6 6 6 6 5 3 2 2 2 2 2 2 2 2 1 1 1 1 1 1 1 1 1 1 1 1 0 0
0 0 0 0 0 0 0 0 1 1 1 2 2 3 3 3 3 3 3 4 4 4 4 4 4 3 2 2 2 2 2 2 2 2 1 1 1 1 1 1 1 1 1 1 1 0 0 0 0
0 0 0 0 0 0 0 0 1 1 1 1 1 2 2 2 2 2 2 3 3 4 3 3 2 2 2 2 2 2 1 1 1 1 1 1 0 0 0 0 0 0 0 0 0 0 0 0 0
0 0 0 0 0 0 0 0 0 1 1 1 1 1 2 2 1 1 2 2 2 2 2 2 2 2 1 1 1 1 1 1 1 0 0 0 0 0 0 0 0 0 0 0 0 0 0 0 0
0 0 0 0 0 0 0 0 0 0 0 0 1 1 1 1 1 1 1 1 1 1 1 1 1 1 1 1 1 1 1 0 0 0 0 0 0 0 0 0 0 0 0 0 0 0 0 0 0
0 0 0 0 0 0 0 0 0 0 0 0 1 1 1 1 1 1 1 1 0 0 0 1 1 1 1 1 1 1 1 0 0 0 0 0 0 0 0 0 0 0 0 0 0 0 0 0 0
Wind_Speed
6 5 3 1 2 3 3 4 3 6 8 8 13 12 9 6 4 6 4 15 18 15 12 16 19 19 18 17 16 15 14 13 13 12 12 11 11 11 10 10 10 9 9 8 7 6 6 7 7
3 2 2 2 4 2 1 2 3 7 11 11 12 11 9 8 10 11 8 14 17 15 10 14 19 19 18 17 16 15 14 13 13 12 11 11 11 10 10 9 9 8 7 7 6 6 6 6 6
3 2 2 3 1 2 3 4 3 7 9 7 7 7 7 8 11 8 10 16 15 11 9 13 20 18 18 17 16 15 14 13 12 12 11 11 10 10 10 9 8 7 7 6 5 5 5 5 5
2 3 4 3 4 6 7 6 5 8 9 8 10 7 5 6 8 13 18 18 15 10 8 12 18 17 16 16 16 15 14 13 13 12 12 11 10 10 10 9 8 7 6 6 5 4 5 5 5
3 4 5 3 6 5 3 7 6 7 6 6 11 8 4 4 19 21 19 17 16 10 8 11 17 16 15 15 16 15 14 14 13 13 12 11 11 10 10 9 8 7 6 5 5 4 5 5 5
4 4 3 4 6 6 3 3 7 10 10 9 11 8 4 12 21 20 18 16 16 13 9 10 17 17 16 15 16 15 15 14 13 13 12 11 11 10 10 9 9 7 6 6 5 5 5 5 5
2 2 2 4 6 5 3 3 6 8 8 8 11 8 6 11 16 18 17 16 15 14 11 8 9 12 15 16 15 15 15 14 13 12 12 12 11 10 10 8 8 8 7 7 7 7 6 6 6
3 3 3 3 5 6 3 1 4 9 8 10 9 11 9 12 14 17 16 14 13 12 11 9 7 7 7 9 14 15 14 14 13 13 13 12 11 10 10 8 9 10 10 9 9 9 9 8 8
1 2 3 3 3 7 9 4 3 4 8 4 5 7 12 15 17 18 15 12 11 11 9 9 9 7 7 7 11 12 14 14 13 11 13 11 5 5 6 9 12 13 12 11 11 11 10 9 9
4 3 7 5 4 7 11 2 3 3 5 5 7 10 16 15 17 19 18 16 14 14 12 10 10 10 8 8 7 5 6 6 7 5 7 5 5 5 7 9 15 16 14 13 13 12 10 8 4
3 6 6 7 9 7 7 4 3 7 3 7 16 20 18 14 14 16 17 16 16 16 14 12 12 11 10 6 6 4 4 4 5 7 7 5 5 4 5 4 7 9 10 6 7 7 5 5 4
4 9 10 10 10 6 6 4 1 4 6 12 21 24 20 17 15 16 16 16 15 15 15 13 13 11 10 7 7 6 5 5 5 7 8 6 4 4 4 4 4 4 3 4 4 3 5 6 7
6 10 14 14 12 7 7 5 1 1 8 16 19 20 19 17 13 11 12 14 14 14 14 15 13 12 10 8 7 7 7 7 7 7 8 8 5 5 4 4 4 4 3 4 4 5 5 6 7
7 8 10 10 11 7 6 7 1 2 16 19 20 19 18 18 15 11 11 12 13 13 13 14 12 11 9 8 6 5 6 7 6 7 8 9 6 5 4 4 4 4 4 4 4 5 5 5 5
4 7 9 7 5 5 3 6 4 7 17 20 19 18 17 16 15 14 13 12 11 11 11 12 12 9 8 8 6 4 4 6 6 6 8 8 7 6 5 4 4 4 3 3 3 4 3 4 4
5 4 6 10 6 7 2 8 10 7 16 17 17 16 14 12 13 12 10 10 10 9 10 11 12 9 8 6 5 3 2 3 3 4 5 8 7 6 5 4 4 3 2 2 2 2 2 3 3
5 3 6 10 7 6 4 9 12 7 15 16 15 14 12 9 7 7 8 8 8 9 11 11 10 10 8 7 5 4 2 2 2 2 3 5 6 6 5 4 4 3 2 2 2 2 2 3 4
5 4 6 8 9 6 8 13 14 7 15 16 15 12 11 10 8 8 7 6 6 7 9 10 9 10 8 6 4 2 2 2 2 2 2 4 4 5 4 4 4 3 2 2 2 3 3 3 4
7 6 6 8 6 5 7 10 12 7 10 12 12 12 12 10 7 8 8 7 6 6 8 9 8 8 7 4 4 3 3 3 2 2 3 3 3 4 4 3 4 4 4 4 4 3 4 3 2
4 3 5 7 8 6 6 6 3 3 6 11 15 15 15 12 9 9 8 8 9 8 8 7 6 6 7 6 5 3 3 3 3 2 2 3 3 4 4 4 4 4 4 5 5 4 3 3 3
4 3 4 6 8 7 6 9 6 3 3 4 5 8 9 12 12 9 8 6 5 7 7 6 5 5 5 5 3 2 2 1 1 1 2 3 4 4 4 4 4 5 5 5 6 5 6 4 3
4 5 4 5 6 5 5 4 8 4 3 5 6 7 7 6 6 5 5 5 4 4 4 5 4 3 2 3 3 4 3 3 2 2 1 2 2 3 3 4 5 5 4 5 6 6 5 5 4
3 2 3 3 3 4 4 1 8 6 4 3 6 9 9 8 6 5 4 3 4 5 5 5 5 4 3 3 3 3 2 1 1 0 1 1 1 1 1 2 3 4 4 5 6 5 5 4 4
2 5 8 6 5 3 4 2 7 3 4 1 5 8 8 8 7 6 5 4 3 4 5 4 5 4 4 4 4 4 4 3 3 3 2 2 2 2 3 2 2 2 2 4 4 4 5 4 4
6 7 6 7 5 5 5 3 5 2 5 2 6 6 5 5 4 3 3 2 1 2 3 4 5 4 4 5 5 5 5 5 4 3 3 2 2 2 3 3 2 2 2 2 1 1 1 2 2
1 6 5 3 4 5 5 5 2 4 5 6 5 4 3 2 2 2 2 2 1 2 2 4 5 5 5 5 5 5 5 4 3 4 3 2 1 1 2 3 3 2 2 2 1 1 1 1 2
2 2 4 5 1 3 5 4 3 3 3 3 2 2 1 1 0 1 2 3 3 3 3 4 5 5 5 5 5 5 5 5 4 4 3 2 1 1 2 3 3 3 3 2 2 1 2 2 2
5 5 6 5 1 4 5 5 4 3 2 2 2 2 2 2 2 2 1 3 3 3 3 4 5 5 4 4 4 5 5 5 4 4 4 3 3 3 3 3 3 3 3 3 3 2 3 3 3
2 4 6 4 4 3 4 7 6 6 5 5 6 5 4 3 2 2 1 1 3 3 3 3 4 4 4 4 5 5 4 4 5 4 3 3 2 3 3 3 3 3 4 3 3 3 3 3 3
5 6 7 5 5 5 4 10 7 5 6 6 7 7 5 4 3 1 1 1 2 2 2 2 3 3 3 4 5 5 5 5 4 3 3 3 3 3 3 3 4 4 5 4 3 3 3 2 2
Wind_Direction
265 238 169 91 46 42 3 329 22 52 65 70 82 85 82 60 117 145 126 140 136 140 145 142 141 142 141 140 139 138 135 131 126 122 120 117 116 114 115 119 121 119 115 111 107 104 111 116 114
268 238 132 61 67 50 298 276 51 87 129 119 86 84 82 75 88 111 121 140 137 138 141 143 143 144 144 144 144 143 143 141 138 135 133 130 127 125 122 124 127 129 128 124 120 116 117 128 132
262 204 94 65 67 196 201 206 147 107 121 105 86 68 80 108 115 127 140 142 135 135 139 147 145 145 147 148 148 148 148 148 147 146 144 142 139 135 132 132 134 137 139 138 139 140 141 145 152
359 33 45 52 269 246 205 192 156 106 85 83 102 77 70 112 122 136 142 144 136 134 140 147 144 145 147 149 150 152 153 154 154 155 155 154 151 148 145 143 142 142 146 148 150 159 163 169 175
56 55 30 338 286 292 190 170 154 118 97 96 99 88 61 72 124 137 146 143 138 139 143 146 145 145 146 150 154 155 157 159 160 162 163 164 163 161 159 157 155 155 157 159 163 171 178 187 195
31 57 43 295 293 313 288 150 126 107 112 110 104 105 99 129 136 146 146 144 144 146 145 148 150 149 150 151 155 158 161 163 165 168 169 170 170 169 169 171 172 173 177 181 188 195 197 203 208
105 63 249 271 303 304 257 169 122 125 132 137 127 107 128 150 149 148 145 143 146 149 149 150 153 155 157 158 160 163 165 167 170 172 175 177 179 180 183 185 189 195 200 206 211 217 219 219 218
151 82 296 301 307 302 314 68 109 120 115 128 129 135 161 175 150 145 141 143 147 151 155 154 154 155 158 163 167 169 171 172 174 177 180 185 190 194 199 202 210 217 220 224 227 230 232 229 226
77 58 255 255 293 315 335 20 25 68 109 131 128 146 157 154 140 140 141 144 150 157 163 160 159 159 161 166 176 175 177 180 181 184 190 193 199 207 217 222 224 229 232 233 236 239 241 239 236
115 193 234 222 274 301 306 287 151 91 91 81 83 112 137 145 144 147 155 159 163 166 171 171 169 170 171 178 175 179 184 186 188 192 198 197 201 215 226 233 236 237 236 236 238 240 244 245 237
191 223 256 273 276 282 293 289 135 130 164 165 146 145 150 152 151 155 164 168 170 171 173 176 177 178 180 186 175 186 191 192 199 204 207 208 211 223 233 233 241 240 239 234 243 244 237 234 230
263 274 279 280 283 286 289 304 85 176 202 167 154 153 157 163 166 166 169 173 172 172 177 178 180 182 188 189 184 189 193 197 204 212 214 210 214 221 225 218 210 207 211 215 227 238 239 236 236
258 267 273 273 277 274 287 288 263 227 139 144 150 155 164 169 172 167 166 170 170 176 179 180 183 186 189 190 191 195 200 201 205 211 215 211 211 214 211 207 199 202 206 217 225 232 239 240 242
257 274 282 282 278 274 274 279 293 160 141 149 159 167 171 174 173 166 165 169 172 173 176 180 185 185 179 182 189 194 202 206 203 209 213 209 208 204 193 193 194 203 207 215 219 226 234 242 244
294 300 300 293 293 284 316 301 255 174 154 160 172 175 175 176 176 178 174 172 172 169 169 177 184 181 172 171 181 184 185 188 201 210 209 204 198 192 182 182 191 201 203 212 223 238 245 250 249
340 340 305 292 292 292 324 270 265 183 163 170 179 181 178 177 179 178 172 171 175 168 166 176 184 182 178 173 177 183 181 175 196 203 202 204 201 189 177 180 195 200 190 197 220 235 251 257 257
354 321 287 294 288 282 270 256 259 200 176 179 182 181 175 168 168 164 165 167 180 183 173 177 178 179 183 180 180 185 185 195 206 204 203 207 203 191 178 184 194 186 180 204 227 225 227 248 259
262 284 290 285 285 285 270 254 259 218 180 183 181 174 162 159 163 156 160 169 183 200 189 182 180 181 181 178 176 181 194 222 221 205 202 202 203 195 181 183 188 179 183 214 225 236 240 237 246
249 272 281 278 290 314 293 266 252 216 175 172 170 164 156 155 146 143 159 174 192 202 201 188 182 183 176 171 179 186 207 221 231 224 206 191 190 186 179 182 191 189 198 214 219 222 241 249 237
260 283 301 305 317 335 325 324 303 149 161 165 165 166 162 153 148 155 159 171 188 194 199 189 183 184 182 182 181 183 185 206 218 223 218 205 195 192 192 195 202 204 210 222 225 216 224 243 217
318 308 303 308 329 359 8 341 346 3 64 99 136 150 155 156 154 154 155 163 168 174 181 176 180 191 186 176 158 144 139 147 197 230 234 228 212 209 209 210 212 215 212 223 227 219 217 232 241
305 306 336 360 18 331 31 321 303 323 33 59 67 70 76 86 99 112 122 124 127 136 133 127 148 156 161 155 155 165 174 192 214 221 232 253 234 230 226 227 224 225 224 229 233 228 219 218 237
272 308 9 5 33 358 10 2 292 357 5 25 60 66 63 63 65 64 70 98 105 100 104 111 116 107 103 116 135 137 137 161 155 66 44 1 339 301 264 245 240 237 234 235 237 235 227 218 222
346 19 14 29 52 346 288 273 277 331 312 321 85 77 72 68 61 48 33 31 60 91 98 103 107 103 97 101 103 110 119 113 94 73 60 38 24 11 356 329 292 265 256 251 245 240 233 227 224
43 62 19 355 2 268 300 301 262 357 1 82 111 93 80 71 70 61 49 33 36 115 128 125 117 105 98 96 93 97 103 101 96 91 78 63 41 19 1 6 2 345 324 305 286 260 253 235 235
31 120 149 217 243 281 319 277 305 53 45 63 79 82 74 72 83 92 87 66 51 78 110 118 108 105 102 100 96 93 92 91 87 82 84 74 60 23 3 16 13 6 2 3 24 36 357 337 313
76 72 153 144 284 284 279 302 42 40 33 39 45 42 10 302 237 120 92 83 63 68 84 96 101 96 92 98 99 93 92 93 90 83 78 71 46 16 18 16 8 355 349 342 341 330 306 290 280
101 121 75 84 39 288 292 308 284 284 266 246 241 243 264 293 311 329 26 69 73 64 64 79 91 97 95 101 111 109 104 100 94 83 68 52 27 17 11 358 344 334 331 329 328 315 304 301 286
87 73 95 110 156 196 261 263 232 221 217 215 217 221 225 252 278 303 345 35 73 72 63 74 88 94 95 97 100 103 102 95 85 76 62 48 30 18 6 353 352 346 340 336 333 317 314 319 322
129 151 147 155 216 198 217 263 257 213 216 209 212 217 217 223 222 221 174 101 80 80 84 84 86 93 102 110 107 106 102 97 86 74 57 46 32 17 11 17 27 28 24 15 3 342 349 1 15